Location: アルンシュタイン
(50.0000°N, 10.0000°E)
Time: 13:31:10
(UTC+02:00)

ISS - Visible Passes

Search period start: 26 September 2023 00:00
Search period end: 06 October 2023 00:00
Orbit: 413 x 421 km, 51.6° (Epoch: 26 September)

Date Brightness Start Highest point End Pass type
(mag) Time Alt. Az. Time Alt. Az. Time Alt. Az.
26 Sep -3.7 20:03:53 10° WNW 20:07:14 71° N 20:09:48 16° E visible
26 Sep -2.0 21:40:44 10° W 21:42:43 29° WSW 21:42:43 29° WSW visible
27 Sep -3.5 20:52:32 10° WNW 20:55:51 59° SSW 20:56:25 50° SSE visible
28 Sep -3.8 20:04:20 10° WNW 20:07:41 80° SSW 20:10:07 17° ESE visible
28 Sep -1.3 21:41:30 10° W 21:43:01 18° WSW 21:43:01 18° WSW visible
29 Sep -2.4 20:53:02 10° W 20:56:01 30° SSW 20:56:44 27° S visible
30 Sep -2.9 20:04:38 10° W 20:07:51 44° SSW 20:10:29 14° SE visible
01 Oct -1.2 20:53:53 10° WSW 20:55:51 15° SW 20:57:12 12° SSW visible
02 Oct -1.6 20:05:02 10° W 20:07:40 22° SW 20:10:19 10° SSE visible
04 Oct -0.5 20:06:56 10° SW 20:07:09 10° SW 20:07:23 10° SW visible
